Location: *
(49.7115°N, 15.0136°E)
Time: 10:53:41
(UTC+00:00)

STARLINK-1024 - Pass Details

Date: 27 February 2020
Orbit: 549 x 550 km, 53.0° (Epoch: 05 April)

Event Time Altitude Azimuth Distance (km) Brightness Sun altitude
Rises 18:20:52 0° 265° (W) 2,717 8.7 -17.3°
Reaches altitude 10° 18:23:08 10° 269° (W) 1,825 7.5 -17.7°
Maximum altitude 18:27:14 59° 349° (N) 640 4.0 -18.4°
Enters shadow 18:28:45 35° 53° (NE) 903 4.3 -18.6°
